| time (UTC) | temp F | wind direction | speed knots | gust knots | rain 1hr in | rain 24hr in | rain mn in | humidity % | barometer mb |
| 20260510105405 | 76 | 165 | 0.0 | 1.7 | 0.00 | 0.68 | 0.00 | 97 | 1010.4 |
| 20260510103405 | 76 | 135 | 1.7 | 6.1 | 0.00 | 0.88 | 0.00 | 97 | 1010.6 |
| 20260510102906 | 76 | 138 | 1.7 | 2.6 | 0.00 | 0.89 | 0.00 | 97 | 1010.6 |
| 20260510102406 | 76 | 138 | 1.7 | 2.6 | 0.00 | 0.89 | 0.00 | 97 | 1010.4 |
| 20260510101905 | 76 | 138 | 1.7 | 2.6 | 0.00 | 0.90 | 0.00 | 97 | 1010.4 |
| 20260510101406 | 76 | 138 | 1.7 | 2.6 | 0.00 | 0.91 | 0.00 | 97 | 1010.3 |
| 20260510100905 | 76 | 138 | 0.9 | 2.6 | 0.00 | 0.92 | 0.00 | 97 | 1010.4 |
| 20260510095906 | 76 | 138 | 0.9 | 4.3 | 0.00 | 0.94 | 0.00 | 97 | 1010.6 |
| 20260510095405 | 76 | 138 | 0.9 | 2.6 | 0.00 | 0.94 | 0.00 | 97 | 1010.7 |
| 20260510094905 | 75 | 138 | 0.0 | 2.6 | 0.00 | 0.94 | 0.00 | 97 | 1010.8 |
| 20260510093906 | 75 | 138 | 0.0 | 0.0 | 0.00 | 0.94 | 0.00 | 96 | 1010.5 |
| 20260510093405 | 75 | 138 | 0.0 | 0.0 | 0.00 | 0.94 | 0.00 | 96 | 1010.4 |
| 20260510092905 | 75 | 138 | 0.0 | 0.0 | 0.00 | 0.94 | 0.00 | 96 | 1010.2 |
| 20260510092405 | 75 | 138 | 0.0 | 0.0 | 0.00 | 0.94 | 0.00 | 96 | 1010.2 |
| 20260510091905 | 75 | 138 | 0.0 | 0.0 | 0.00 | 0.94 | 0.00 | 96 | 1010.2 |
| 20260510091405 | 75 | 138 | 0.0 | 0.0 | 0.00 | 0.94 | 0.00 | 96 | 1010.2 |
| 20260510090906 | 75 | 138 | 0.0 | 0.0 | 0.00 | 0.94 | 0.00 | 96 | 1010.1 |
| 20260510090405 | 75 | 138 | 0.0 | 0.0 | 0.00 | 0.94 | 0.00 | 96 | 1010.1 |
| 20260510085905 | 75 | 138 | 0.0 | 0.0 | 0.00 | 0.94 | 0.00 | 96 | 1010.2 |
| 20260510085405 | 75 | 138 | 0.9 | 2.6 | 0.00 | 0.94 | 0.00 | 95 | 1010.1 |
| 20260510084905 | 75 | 138 | 0.9 | 2.6 | 0.00 | 0.94 | 0.00 | 95 | 1010.2 |
| 20260510084405 | 75 | 138 | 1.7 | 2.6 | 0.00 | 0.94 | 0.00 | 95 | 1010.2 |
| 20260510083906 | 75 | 138 | 1.7 | 2.6 | 0.00 | 0.94 | 0.00 | 95 | 1010.3 |
| 20260510082405 | 75 | 138 | 0.9 | 2.6 | 0.00 | 0.94 | 0.00 | 95 | 1010.1 |
| 20260510081906 | 75 | 138 | 0.9 | 2.6 | 0.00 | 0.94 | 0.00 | 95 | 1010.4 |
| 20260510081406 | 75 | 138 | 1.7 | 2.6 | 0.00 | 0.94 | 0.00 | 94 | 1010.4 |
| 20260510080905 | 75 | 138 | 1.7 | 2.6 | 0.00 | 0.94 | 0.00 | 94 | 1010.5 |
| 20260510080405 | 75 | 148 | 1.7 | 2.6 | 0.00 | 0.94 | 0.00 | 94 | 1010.6 |
| 20260510075906 | 75 | 148 | 1.7 | 2.6 | 0.00 | 0.94 | 0.00 | 94 | 1010.5 |
| 20260510075405 | 75 | 144 | 1.7 | 4.3 | 0.00 | 0.94 | 0.00 | 94 | 1010.4 |
| 20260510074905 | 75 | 143 | 0.9 | 2.6 | 0.00 | 0.94 | 0.00 | 94 | 1010.5 |
| 20260510074405 | 76 | 143 | 0.9 | 2.6 | 0.00 | 0.94 | 0.00 | 94 | 1010.6 |
| 20260510073905 | 76 | 143 | 0.9 | 5.2 | 0.00 | 0.94 | 0.00 | 94 | 1010.5 |
| 20260510073405 | 76 | 158 | 2.6 | 5.2 | 0.00 | 0.94 | 0.00 | 94 | 1010.4 |
| 20260510072905 | 76 | 140 | 1.7 | 2.6 | 0.00 | 0.94 | 0.00 | 94 | 1010.4 |
| 20260510071405 | 76 | 141 | 3.5 | 7.0 | 0.00 | 0.94 | 0.00 | 94 | 1010.5 |
| 20260510070905 | 76 | 135 | 2.6 | 6.1 | 0.00 | 0.94 | 0.00 | 94 | 1010.7 |
| 20260510070405 | 76 | 132 | 2.6 | 5.2 | 0.00 | 0.94 | 0.00 | 94 | 1010.7 |
| 20260510065905 | 76 | 140 | 2.6 | 7.0 | 0.00 | 0.94 | 0.00 | 94 | 1010.7 |
| 20260510065405 | 76 | 147 | 1.7 | 6.1 | 0.00 | 0.94 | 0.00 | 94 | 1010.8 |
| 20260510064905 | 76 | 151 | 2.6 | 6.1 | 0.00 | 0.94 | 0.00 | 94 | 1010.9 |
| 20260510064405 | 76 | 145 | 1.7 | 4.3 | 0.00 | 0.94 | 0.00 | 94 | 1010.9 |
| 20260510063905 | 76 | 141 | 2.6 | 7.0 | 0.00 | 0.94 | 0.00 | 94 | 1010.8 |
| 20260510063405 | 76 | 151 | 2.6 | 7.8 | 0.00 | 0.94 | 0.00 | 94 | 1010.7 |
| 20260510062904 | 76 | 132 | 4.3 | 8.7 | 0.00 | 0.94 | 0.00 | 94 | 1010.7 |
| 20260510062405 | 76 | 152 | 4.3 | 6.1 | 0.00 | 0.94 | 0.00 | 93 | 1010.8 |
| 20260510061406 | 76 | 148 | 3.5 | 7.0 | 0.00 | 0.94 | 0.00 | 93 | 1010.6 |
| 20260510060905 | 76 | 136 | 3.5 | 6.1 | 0.00 | 0.94 | 0.00 | 93 | 1010.8 |
| 20260510060405 | 76 | 139 | 3.5 | 6.1 | 0.00 | 0.94 | 0.00 | 93 | 1010.8 |
| 20260510055905 | 76 | 151 | 2.6 | 7.0 | 0.00 | 0.94 | 0.00 | 93 | 1011.0 |
| 20260510055405 | 76 | 99 | 1.7 | 7.0 | 0.00 | 0.94 | 0.00 | 93 | 1011.0 |
| 20260510054405 | 76 | 140 | 4.3 | 7.8 | 0.00 | 0.94 | 0.00 | 93 | 1011.0 |
| 20260510053905 | 76 | 147 | 2.6 | 5.2 | 0.00 | 0.94 | 0.00 | 92 | 1011.1 |
| 20260510052405 | 76 | 108 | 0.9 | 2.6 | 0.00 | 0.94 | 0.00 | 92 | 1011.1 |
| 20260510051904 | 76 | 130 | 0.9 | 2.6 | 0.00 | 0.94 | 0.00 | 92 | 1011.0 |
| 20260510051405 | 76 | 161 | 0.9 | 5.2 | 0.00 | 0.94 | 0.00 | 92 | 1010.9 |
| 20260510050905 | 76 | 135 | 2.6 | 7.8 | 0.00 | 0.94 | 0.00 | 92 | 1010.8 |
| 20260510050404 | 76 | 147 | 2.6 | 6.1 | 0.00 | 0.94 | 0.00 | 91 | 1010.8 |
| 20260510045905 | 76 | 129 | 0.9 | 2.6 | 0.00 | 0.94 | 0.94 | 91 | 1010.6 |
| 20260510045405 | 76 | 131 | 2.6 | 5.2 | 0.00 | 0.94 | 0.94 | 91 | 1010.3 |
| 20260510044904 | 76 | 146 | 2.6 | 4.3 | 0.00 | 0.94 | 0.94 | 91 | 1010.1 |
| 20260510043905 | 76 | 135 | 1.7 | 4.3 | 0.00 | 0.94 | 0.94 | 91 | 1010.1 |
| 20260510043405 | 76 | 131 | 2.6 | 6.1 | 0.00 | 0.94 | 0.94 | 90 | 1010.0 |
| 20260510042905 | 76 | 133 | 3.5 | 7.8 | 0.00 | 0.94 | 0.94 | 90 | 1010.0 |
| 20260510041905 | 77 | 132 | 2.6 | 7.8 | 0.00 | 0.94 | 0.94 | 89 | 1009.8 |
| 20260510041405 | 77 | 150 | 2.6 | 7.8 | 0.00 | 0.94 | 0.94 | 89 | 1009.8 |
| 20260510040904 | 77 | 137 | 4.3 | 7.8 | 0.00 | 0.94 | 0.94 | 89 | 1009.5 |
| 20260510040405 | 77 | 143 | 4.3 | 7.8 | 0.00 | 0.94 | 0.94 | 89 | 1009.3 |
| 20260510035904 | 77 | 134 | 5.2 | 10.4 | 0.00 | 0.94 | 0.94 | 88 | 1009.6 |
| 20260510035405 | 77 | 137 | 3.5 | 8.7 | 0.00 | 0.94 | 0.94 | 88 | 1009.7 |
| 20260510034404 | 77 | 146 | 2.6 | 10.4 | 0.00 | 0.94 | 0.94 | 87 | 1009.8 |
| 20260510033905 | 77 | 134 | 4.3 | 10.4 | 0.00 | 0.94 | 0.94 | 87 | 1009.8 |
| 20260510033404 | 77 | 145 | 4.3 | 8.7 | 0.00 | 0.94 | 0.94 | 86 | 1009.8 |
| 20260510032904 | 77 | 142 | 4.3 | 7.8 | 0.00 | 0.94 | 0.94 | 86 | 1009.7 |
| 20260510032404 | 77 | 149 | 2.6 | 6.1 | 0.00 | 0.94 | 0.94 | 86 | 1009.8 |
| 20260510031404 | 77 | 129 | 2.6 | 7.0 | 0.00 | 0.94 | 0.94 | 85 | 1009.7 |
| 20260510030905 | 77 | 130 | 1.7 | 7.0 | 0.00 | 0.94 | 0.94 | 85 | 1009.7 |
| 20260510030404 | 77 | 134 | 2.6 | 7.0 | 0.00 | 0.94 | 0.94 | 85 | 1009.8 |
| 20260510025905 | 77 | 140 | 2.6 | 6.1 | 0.00 | 0.94 | 0.94 | 84 | 1009.6 |
| 20260510025404 | 77 | 133 | 2.6 | 8.7 | 0.00 | 0.94 | 0.94 | 84 | 1009.6 |
| 20260510024404 | 77 | 128 | 2.6 | 6.1 | 0.00 | 0.94 | 0.94 | 83 | 1009.4 |
| 20260510023904 | 78 | 123 | 0.9 | 2.6 | 0.00 | 0.94 | 0.94 | 82 | 1009.3 |
| 20260510023404 | 78 | 148 | 1.7 | 5.2 | 0.00 | 0.94 | 0.94 | 82 | 1009.3 |
| 20260510022905 | 78 | 129 | 1.7 | 7.8 | 0.00 | 0.94 | 0.94 | 81 | 1009.2 |
| 20260510022404 | 78 | 126 | 2.6 | 8.7 | 0.00 | 0.94 | 0.94 | 80 | 1009.3 |
| 20260510021905 | 78 | 131 | 2.6 | 8.7 | 0.00 | 0.94 | 0.94 | 80 | 1009.2 |
| 20260510021405 | 78 | 135 | 2.6 | 7.0 | 0.00 | 0.94 | 0.94 | 80 | 1009.2 |
| 20260510020904 | 78 | 171 | 2.6 | 6.1 | 0.00 | 0.94 | 0.94 | 79 | 1009.1 |
| 20260510020405 | 78 | 147 | 2.6 | 7.8 | 0.00 | 0.94 | 0.94 | 79 | 1008.9 |
| 20260510015924 | 78 | 149 | 2.6 | 8.7 | 0.00 | 0.94 | 0.94 | 79 | 1008.9 |
| 20260510015404 | 78 | 143 | 4.3 | 7.0 | 0.00 | 0.94 | 0.94 | 80 | 1008.8 |
| 20260510014905 | 78 | 141 | 3.5 | 7.0 | 0.00 | 0.94 | 0.94 | 80 | 1008.7 |
| 20260510014404 | 79 | 146 | 4.3 | 7.8 | 0.00 | 0.94 | 0.94 | 79 | 1008.5 |
| 20260510013904 | 79 | 132 | 3.5 | 7.8 | 0.00 | 0.94 | 0.94 | 78 | 1008.6 |
| 20260510013404 | 79 | 148 | 2.6 | 8.7 | 0.00 | 0.94 | 0.94 | 77 | 1008.5 |
| 20260510012404 | 79 | 143 | 4.3 | 8.7 | 0.00 | 0.94 | 0.94 | 76 | 1008.3 |
| 20260510011904 | 80 | 144 | 2.6 | 7.8 | 0.00 | 0.94 | 0.94 | 74 | 1008.3 |
| 20260510011404 | 80 | 123 | 2.6 | 6.1 | 0.00 | 0.94 | 0.94 | 74 | 1008.2 |
| 20260510010904 | 80 | 144 | 3.5 | 7.8 | 0.00 | 0.94 | 0.94 | 73 | 1008.3 |
| 20260510005905 | 81 | 134 | 4.3 | 7.8 | 0.00 | 0.94 | 0.94 | 71 | 1008.2 |
| 20260510005404 | 81 | 134 | 4.3 | 7.8 | 0.00 | 0.94 | 0.94 | 71 | 1008.3 |
| 20260510004904 | 81 | 157 | 2.6 | 10.4 | 0.00 | 0.94 | 0.94 | 71 | 1008.5 |
| 20260510004404 | 81 | 136 | 2.6 | 6.1 | 0.00 | 0.94 | 0.94 | 71 | 1008.6 |
| 20260510003904 | 81 | 134 | 3.5 | 7.0 | 0.00 | 0.94 | 0.94 | 71 | 1008.6 |
| 20260510003405 | 82 | 135 | 4.3 | 10.4 | 0.00 | 0.94 | 0.94 | 72 | 1008.5 |
| 20260510002904 | 82 | 143 | 3.5 | 7.8 | 0.00 | 0.94 | 0.94 | 72 | 1008.5 |
| 20260510002404 | 82 | 139 | 4.3 | 10.4 | 0.00 | 0.94 | 0.94 | 72 | 1008.6 |
| 20260510001404 | 83 | 141 | 5.2 | 10.4 | 0.00 | 0.94 | 0.94 | 72 | 1008.4 |
| 20260510000905 | 83 | 142 | 2.6 | 10.4 | 0.00 | 0.94 | 0.94 | 71 | 1008.3 |
| 20260510000404 | 83 | 143 | 5.2 | 8.7 | 0.00 | 0.94 | 0.94 | 71 | 1008.4 |
| 20260509235404 | 83 | 139 | 5.2 | 8.7 | 0.00 | 0.94 | 0.94 | 70 | 1008.4 |
| 20260509234908 | 83 | 147 | 5.2 | 10.4 | 0.00 | 0.94 | 0.94 | 69 | 1008.3 |
| 20260509234408 | 84 | 139 | 5.2 | 11.3 | 0.00 | 0.94 | 0.94 | 69 | 1008.2 |
| 20260509233907 | 84 | 134 | 3.5 | 7.0 | 0.00 | 0.94 | 0.94 | 69 | 1008.3 |
| 20260509233408 | 84 | 137 | 5.2 | 10.4 | 0.00 | 0.94 | 0.94 | 69 | 1008.3 |
| 20260509232907 | 84 | 152 | 3.5 | 7.8 | 0.00 | 0.94 | 0.94 | 69 | 1008.3 |
| 20260509232408 | 85 | 143 | 4.3 | 10.4 | 0.00 | 0.94 | 0.94 | 68 | 1008.4 |
| 20260509230908 | 85 | 149 | 4.3 | 7.8 | 0.00 | 0.94 | 0.94 | 68 | 1008.5 |
| 20260509230407 | 85 | 134 | 6.1 | 12.2 | 0.00 | 0.94 | 0.94 | 66 | 1008.4 |
| 20260509225908 | 85 | 147 | 5.2 | 10.4 | 0.00 | 0.94 | 0.94 | 69 | 1008.6 |
| 20260509225408 | 84 | 136 | 5.2 | 11.3 | 0.00 | 0.94 | 0.94 | 69 | 1008.6 |
| 20260509224908 | 84 | 142 | 5.2 | 10.4 | 0.00 | 0.94 | 0.94 | 69 | 1008.6 |
| 20260509224407 | 84 | 144 | 4.3 | 10.4 | 0.00 | 0.94 | 0.94 | 70 | 1008.6 |
| 20260509223907 | 84 | 113 | 4.3 | 10.4 | 0.00 | 0.94 | 0.94 | 71 | 1008.6 |
| 20260509223407 | 84 | 141 | 6.1 | 11.3 | 0.00 | 0.94 | 0.94 | 70 | 1008.7 |
| 20260509222907 | 84 | 143 | 3.5 | 7.8 | 0.00 | 0.94 | 0.94 | 72 | 1008.7 |
| 20260509222407 | 84 | 114 | 4.3 | 11.3 | 0.00 | 0.94 | 0.94 | 72 | 1008.6 |
| 20260509221907 | 85 | 101 | 3.5 | 10.4 | 0.00 | 0.94 | 0.94 | 72 | 1008.7 |
| 20260509221408 | 85 | 134 | 6.1 | 11.3 | 0.00 | 0.94 | 0.94 | 72 | 1008.7 |
| 20260509220407 | 86 | 142 | 5.2 | 7.8 | 0.00 | 0.94 | 0.94 | 72 | 1008.5 |
| 20260509215906 | 87 | 143 | 4.3 | 10.4 | 0.00 | 0.94 | 0.94 | 70 | 1008.5 |
| 20260509215407 | 88 | 111 | 3.5 | 10.4 | 0.00 | 0.94 | 0.94 | 69 | 1008.5 |
| 20260509214907 | 88 | 139 | 4.3 | 7.8 | 0.00 | 0.94 | 0.94 | 68 | 1008.5 |
| 20260509213907 | 88 | 148 | 4.3 | 10.4 | 0.00 | 0.94 | 0.94 | 66 | 1008.4 |
| 20260509213407 | 88 | 143 | 6.1 | 10.4 | 0.00 | 0.94 | 0.94 | 68 | 1008.5 |
| 20260509212907 | 88 | 139 | 6.1 | 10.4 | 0.00 | 0.94 | 0.94 | 70 | 1008.5 |
| 20260509212407 | 88 | 143 | 5.2 | 8.7 | 0.00 | 0.94 | 0.94 | 68 | 1008.5 |
| 20260509211907 | 89 | 137 | 6.1 | 10.4 | 0.00 | 0.94 | 0.94 | 65 | 1008.5 |
| 20260509211407 | 89 | 134 | 4.3 | 10.4 | 0.00 | 0.94 | 0.94 | 63 | 1008.4 |
| 20260509210907 | 90 | 145 | 5.2 | 10.4 | 0.00 | 0.94 | 0.94 | 62 | 1008.5 |
| 20260509210407 | 89 | 151 | 3.5 | 7.8 | 0.00 | 0.94 | 0.94 | 60 | 1008.6 |
| 20260509205907 | 89 | 160 | 3.5 | 7.0 | 0.00 | 0.94 | 0.94 | 62 | 1008.5 |
| 20260509204907 | 90 | 142 | 2.6 | 7.8 | 0.00 | 0.94 | 0.94 | 62 | 1008.7 |
| 20260509204407 | 90 | 149 | 2.6 | 7.8 | 0.00 | 0.94 | 0.94 | 62 | 1008.7 |
| 20260509203906 | 89 | 156 | 2.6 | 7.8 | 0.00 | 0.94 | 0.94 | 63 | 1008.6 |
| 20260509203407 | 89 | 130 | 1.7 | 7.8 | 0.00 | 0.94 | 0.94 | 62 | 1008.6 |
| 20260509202407 | 89 | 145 | 2.6 | 10.4 | 0.00 | 0.94 | 0.94 | 66 | 1008.6 |
| 20260509201906 | 90 | 131 | 3.5 | 10.4 | 0.00 | 0.94 | 0.94 | 65 | 1008.7 |
| 20260509201407 | 90 | 136 | 2.6 | 7.8 | 0.00 | 0.94 | 0.94 | 65 | 1008.7 |
| 20260509200407 | 89 | 138 | 1.7 | 6.1 | 0.00 | 0.94 | 0.94 | 65 | 1008.8 |
| 20260509195906 | 89 | 144 | 2.6 | 4.3 | 0.00 | 0.94 | 0.94 | 68 | 1008.8 |
| 20260509195407 | 89 | 154 | 2.6 | 5.2 | 0.00 | 0.94 | 0.94 | 69 | 1008.8 |
| 20260509193907 | 88 | 131 | 2.6 | 6.1 | 0.00 | 0.94 | 0.94 | 68 | 1008.9 |
| 20260509193407 | 89 | 122 | 1.7 | 6.1 | 0.00 | 0.94 | 0.94 | 67 | 1008.9 |
| 20260509192907 | 89 | 140 | 2.6 | 6.1 | 0.00 | 0.94 | 0.94 | 67 | 1009.0 |
| 20260509192407 | 89 | 128 | 0.9 | 6.1 | 0.00 | 0.94 | 0.94 | 65 | 1009.0 |
| 20260509191907 | 89 | 32 | 0.9 | 1.7 | 0.00 | 0.94 | 0.94 | 56 | 1008.9 |
| 20260509191407 | 88 | 19 | 1.7 | 2.6 | 0.00 | 0.94 | 0.94 | 56 | 1009.1 |
| 20260509190907 | 88 | 256 | 0.0 | 0.0 | 0.00 | 0.94 | 0.94 | 57 | 1008.9 |
| 20260509190407 | 88 | 256 | 0.0 | 2.6 | 0.00 | 0.94 | 0.94 | 55 | 1009.0 |
| 20260509185907 | 87 | 353 | 0.9 | 2.6 | 0.00 | 0.94 | 0.94 | 58 | 1009.0 |
| 20260509185407 | 87 | 183 | 0.9 | 2.6 | 0.00 | 0.94 | 0.94 | 58 | 1009.0 |
| 20260509184907 | 87 | 9 | 1.7 | 2.6 | 0.00 | 0.94 | 0.94 | 58 | 1009.0 |
| 20260509184407 | 87 | 279 | 0.9 | 5.2 | 0.00 | 0.94 | 0.94 | 63 | 1009.0 |
| 20260509183906 | 86 | 19 | 0.9 | 2.6 | 0.00 | 0.94 | 0.94 | 62 | 1009.1 |
| 20260509183406 | 86 | 249 | 0.0 | 2.6 | 0.00 | 0.94 | 0.94 | 65 | 1009.2 |
| 20260509182907 | 85 | 253 | 0.9 | 2.6 | 0.00 | 0.94 | 0.94 | 64 | 1009.1 |
| 20260509182407 | 85 | 275 | 2.6 | 5.2 | 0.00 | 0.94 | 0.94 | 62 | 1009.1 |
| 20260509181907 | 85 | 269 | 0.9 | 2.6 | 0.00 | 0.94 | 0.94 | 63 | 1009.3 |
| 20260509181406 | 85 | 246 | 0.9 | 2.6 | 0.00 | 0.94 | 0.94 | 66 | 1009.3 |
| 20260509180906 | 85 | 250 | 1.7 | 2.6 | 0.00 | 0.94 | 0.94 | 65 | 1009.2 |
| 20260509180407 | 85 | 262 | 1.7 | 6.1 | 0.00 | 0.94 | 0.94 | 65 | 1009.3 |
| 20260509175907 | 85 | 262 | 1.7 | 2.6 | 0.00 | 0.94 | 0.94 | 66 | 1009.3 |
| 20260509175406 | 85 | 251 | 0.9 | 2.6 | 0.00 | 0.94 | 0.94 | 69 | 1009.2 |
| 20260509174906 | 84 | 261 | 1.7 | 5.2 | 0.00 | 0.94 | 0.94 | 70 | 1009.2 |
| 20260509173406 | 84 | 180 | 0.9 | 1.7 | 0.00 | 0.94 | 0.94 | 70 | 1009.3 |
| 20260509172406 | 84 | 300 | 0.0 | 6.1 | 0.00 | 0.94 | 0.94 | 70 | 1009.3 |
| 20260509171906 | 84 | 32 | 1.7 | 2.6 | 0.00 | 0.94 | 0.94 | 72 | 1009.4 |
| 20260509171407 | 84 | 355 | 0.9 | 2.6 | 0.00 | 0.94 | 0.94 | 75 | 1009.3 |
| 20260509170906 | 84 | 11 | 1.7 | 4.3 | 0.00 | 0.94 | 0.94 | 74 | 1009.5 |
| 20260509170407 | 83 | 280 | 0.9 | 2.6 | 0.00 | 0.94 | 0.94 | 73 | 1009.5 |
| 20260509165907 | 84 | 258 | 2.6 | 5.2 | 0.00 | 0.94 | 0.94 | 71 | 1009.7 |
| 20260509164906 | 84 | 317 | 1.7 | 5.2 | 0.00 | 0.94 | 0.94 | 74 | 1009.8 |
| 20260509164407 | 83 | 38 | 1.7 | 2.6 | 0.00 | 0.94 | 0.94 | 74 | 1009.7 |
| 20260509163906 | 82 | 350 | 0.9 | 2.6 | 0.00 | 0.94 | 0.94 | 77 | 1009.8 |
| 20260509163408 | 82 | 188 | 0.0 | 0.0 | 0.00 | 0.94 | 0.94 | 78 | 1009.9 |
| 20260509162906 | 81 | 264 | 0.9 | 5.2 | 0.00 | 0.94 | 0.94 | 79 | 1010.0 |
| 20260509162406 | 80 | 59 | 0.0 | 2.6 | 0.00 | 0.94 | 0.94 | 80 | 1010.1 |
| 20260509161907 | 80 | 18 | 0.9 | 2.6 | 0.00 | 0.94 | 0.94 | 80 | 1010.3 |
| 20260509161406 | 79 | 278 | 0.9 | 2.6 | 0.00 | 0.94 | 0.94 | 82 | 1010.5 |
| 20260509160907 | 79 | 290 | 0.0 | 2.6 | 0.00 | 0.94 | 0.94 | 83 | 1010.2 |
| 20260509160407 | 78 | 266 | 1.7 | 4.3 | 0.00 | 0.94 | 0.94 | 84 | 1010.1 |
| 20260509155906 | 78 | 355 | 0.9 | 2.6 | 0.00 | 0.94 | 0.94 | 84 | 1010.0 |
| 20260509155406 | 77 | 264 | 0.9 | 2.6 | 0.00 | 0.94 | 0.94 | 86 | 1010.0 |
| 20260509154907 | 77 | 263 | 1.7 | 5.2 | 0.00 | 0.94 | 0.94 | 86 | 1010.0 |
| 20260509154406 | 76 | 311 | 0.9 | 2.6 | 0.00 | 0.94 | 0.94 | 88 | 1010.0 |
| 20260509153906 | 76 | 257 | 0.0 | 1.7 | 0.00 | 0.94 | 0.94 | 90 | 1009.8 |
| 20260509153407 | 75 | 257 | 0.0 | 2.6 | 0.01 | 0.94 | 0.94 | 91 | 1009.8 |
| 20260509152907 | 75 | 268 | 1.7 | 2.6 | 0.01 | 0.94 | 0.94 | 92 | 1009.7 |
| 20260509152406 | 74 | 266 | 0.9 | 2.6 | 0.01 | 0.94 | 0.94 | 93 | 1009.5 |
| 20260509151906 | 74 | 273 | 0.9 | 5.2 | 0.01 | 0.94 | 0.94 | 94 | 1009.2 |
| 20260509150906 | 73 | 275 | 1.7 | 2.6 | 0.02 | 0.94 | 0.94 | 94 | 1009.4 |
| 20260509150406 | 73 | 255 | 0.0 | 2.6 | 0.03 | 0.94 | 0.94 | 95 | 1009.2 |
| 20260509145906 | 73 | 228 | 0.9 | 2.6 | 0.03 | 0.94 | 0.94 | 95 | 1009.2 |
| 20260509145406 | 72 | 263 | 0.9 | 2.6 | 0.03 | 0.94 | 0.94 | 95 | 1009.0 |
| 20260509144406 | 72 | 281 | 0.0 | 1.7 | 0.04 | 0.94 | 0.94 | 96 | 1008.7 |
| 20260509143906 | 72 | 3 | 1.7 | 2.6 | 0.05 | 0.94 | 0.94 | 96 | 1008.6 |
| 20260509143406 | 71 | 236 | 0.9 | 1.7 | 0.04 | 0.93 | 0.93 | 95 | 1008.7 |
| 20260509142906 | 71 | 113 | 0.9 | 2.6 | 0.05 | 0.93 | 0.93 | 95 | 1008.6 |
| 20260509142406 | 71 | 7 | 1.7 | 4.3 | 0.06 | 0.93 | 0.93 | 95 | 1008.4 |
| 20260509141906 | 71 | 339 | 0.0 | 0.0 | 0.06 | 0.93 | 0.93 | 95 | 1008.7 |
| 20260509141406 | 71 | 339 | 0.0 | 0.9 | 0.06 | 0.92 | 0.92 | 95 | 1008.8 |
| 20260509140906 | 71 | 308 | 0.9 | 2.6 | 0.07 | 0.92 | 0.92 | 94 | 1008.8 |
| 20260509140406 | 71 | 46 | 0.9 | 2.6 | 0.06 | 0.91 | 0.91 | 94 | 1009.0 |
| 20260509135906 | 71 | 59 | 1.7 | 2.6 | 0.07 | 0.91 | 0.91 | 94 | 1008.9 |
| 20260509135406 | 71 | 107 | 1.7 | 4.3 | 0.08 | 0.91 | 0.91 | 94 | 1008.4 |
| 20260509134906 | 71 | 124 | 2.6 | 4.3 | 0.08 | 0.90 | 0.90 | 94 | 1008.6 |
| 20260509133906 | 71 | 130 | 7.8 | 13.0 | 0.08 | 0.89 | 0.89 | 95 | 1008.3 |
| 20260509133406 | 71 | 135 | 8.7 | 17.4 | 0.09 | 0.89 | 0.89 | 95 | 1008.5 |
| 20260509131406 | 71 | 138 | 13.9 | 22.6 | 0.12 | 0.86 | 0.86 | 95 | 1008.5 |
| 20260509130906 | 72 | 143 | 12.2 | 22.6 | 0.12 | 0.85 | 0.85 | 96 | 1008.5 |
| 20260509130405 | 72 | 140 | 12.2 | 21.7 | 0.14 | 0.85 | 0.85 | 96 | 1008.5 |
| 20260509125905 | 73 | 143 | 11.3 | 19.1 | 0.14 | 0.84 | 0.84 | 97 | 1008.8 |
| 20260509125406 | 73 | 147 | 9.6 | 17.4 | 0.15 | 0.83 | 0.83 | 97 | 1008.9 |
| 20260509124906 | 72 | 138 | 8.7 | 17.4 | 0.16 | 0.82 | 0.82 | 97 | 1009.6 |
| 20260509123406 | 72 | 142 | 6.1 | 10.4 | 0.21 | 0.80 | 0.80 | 97 | 1010.4 |
| 20260509122906 | 71 | 146 | 5.2 | 10.4 | 0.21 | 0.78 | 0.78 | 97 | 1010.3 |
| 20260509122405 | 71 | 137 | 7.0 | 13.9 | 0.23 | 0.77 | 0.77 | 96 | 1009.8 |
| 20260509121906 | 71 | 137 | 4.3 | 10.4 | 0.25 | 0.76 | 0.76 | 97 | 1009.8 |
| 20260509121406 | 70 | 167 | 2.6 | 6.1 | 0.27 | 0.74 | 0.74 | 96 | 1009.8 |
| 20260509120406 | 70 | 104 | 5.2 | 10.4 | 0.32 | 0.71 | 0.71 | 96 | 1008.9 |
| 20260509115906 | 70 | 60 | 1.7 | 7.8 | 0.37 | 0.70 | 0.70 | 96 | 1009.9 |
| 20260509115406 | 70 | 111 | 0.9 | 2.6 | 0.42 | 0.68 | 0.68 | 96 | 1011.4 |
| 20260509114905 | 70 | 141 | 0.9 | 2.6 | 0.47 | 0.66 | 0.66 | 96 | 1011.8 |
| 20260509113905 | 70 | 19 | 0.0 | 0.9 | 0.54 | 0.62 | 0.62 | 96 | 1011.8 |
| 20260509113405 | 70 | 19 | 0.0 | 0.0 | 0.53 | 0.59 | 0.59 | 96 | 1011.7 |
| 20260509112905 | 70 | 19 | 0.0 | 0.0 | 0.52 | 0.57 | 0.57 | 96 | 1011.6 |
| 20260509112406 | 71 | 19 | 0.0 | 0.0 | 0.49 | 0.54 | 0.54 | 96 | 1011.6 |
| 20260509111906 | 71 | 19 | 0.0 | 0.0 | 0.47 | 0.51 | 0.51 | 96 | 1011.6 |
| 20260509110405 | 70 | 5 | 0.9 | 2.6 | 0.38 | 0.39 | 0.39 | 94 | 1011.9 |
| 20260509105906 | 71 | 5 | 0.9 | 2.6 | 0.33 | 0.33 | 0.33 | 93 | 1011.9 |